LiveATC.Net - Listen to live air traffic control over the Internet!

ICAO: KHFD  IATA: HFD   Airport: Hartford-Brainard Airport
City: Hartford   State/Province: Connecticut
Country: United States   Continent: North America
KHFD METAR Weather: KHFD 280358Z 35005KT 3SM -RA BR BKN004 OVC012 04/03 A3007 RMK AO2 P0000 T00390033
KHFD Flight Activity (FlightAware)
KHFD Airport Info   (AirNav) (iFlightPlanner)
KHFD VFR Sectional Chart   (iFlightPlanner) 
KHFD IFR Low Chart   (iFlightPlanner) 
KHFD Ground/Tower
Feed Status: UP   Listeners: 0
Listen right in your browser - requires Flash (in browser, requires Flash)
Click here to listen with your own player (launches your MP3 player)
KHFD Ground/Tower Audio Archives
Brainard Ground121.600
Brainard Tower119.600

Sponsored by: Premier Flight Center


Unauthorized use prohibited. See Terms of Service

Find LiveATC Audio Streams

Airport/ARTCC Code

(e.g., 124.400, 128.75)
Site-wide search

Browse LiveATC Feeds
LiveATC Coverage Map
Top 50 LiveATC Feeds
Bad Weather Areas

Offer a LiveATC Feed
Press Inquiries

LiveATC on iPhone
LiveATC on Android

Windows Phone
Windows 8/10

LiveATC Mobile
(Mobile browser)

ATC Audio Archives
Interesting Recordings

LiveATC Forums

Home Page
Make a Donation
LiveATC Store

Terms of Use
Privacy Policy

Canadian Air Freqs


FAA Airport Status
Nat'l Airspace Status
Arrival Demand Charts

Server Software By: